"startDT [UTC]","vpos","CH4 [ppm]","stdev(CH4) [ppm]","CO2 [ppm]","stdev(CO2) [ppm]","H2O [ppm]","stdev(H2O)","p_LGR [torr]","T_LGR [C]","mt1_LGR [us]","mt2_LGR [us]","T_ECpre [C]","T_EC1 [C]","T_EC2 [C]","p_inlet [hPa]","p_in [hPa]","p_out [hPa]","T_inlet [C]","RH_inlet [%]","dwpt_inlet [C]","T_vent [C]","RH_vent [%]","dwpt_vent [C]","flow_vent [l min-1]","flow_inlet [l min-1]","dwpt_sample [C]","T_room [C]"
2012-02-10 00:00:00,0.0,1.9055,0.0009,400.16,0.45,88.3,35.1,138.11,28.79,24.60,36.34,0.04,-272.74,-272.74,-48,560,-926,21.6,3.1,-25.2,22.0,3.1,-24.7,5.73,2.38,-26.5,27.8
2012-02-10 00:01:00,0.0,1.9054,0.0011,400.24,0.38,88.7,33.7,138.12,28.79,24.61,36.33,0.04,-272.73,-272.74,-47,560,-926,21.6,3.0,-25.3,22.0,3.1,-24.8,5.73,2.28,-26.5,27.7
2012-02-10 00:02:00,0.0,1.9048,0.0009,400.24,0.36,81.3,36.4,138.12,28.80,24.61,36.33,0.04,-272.74,-272.73,-48,560,-926,21.6,3.0,-25.3,22.0,3.1,-24.8,5.73,2.47,-26.5,27.7
2012-02-10 00:03:00,0.0,1.9050,0.0010,400.24,0.40,86.5,37.6,138.12,28.80,24.61,36.33,0.04,-272.74,-272.73,-48,560,-926,21.6,3.0,-25.2,22.0,3.1,-24.8,5.73,2.39,-26.5,27.6
2012-02-10 00:04:00,0.0,1.9054,0.0009,400.27,0.31,85.7,33.5,138.12,28.80,24.60,36.33,0.04,-272.74,-272.74,-47,561,-926,21.6,3.0,-25.3,22.0,3.1,-24.8,5.73,2.28,-26.5,27.6
2012-02-10 00:05:00,0.0,1.9051,0.0010,400.32,0.34,85.4,36.8,138.12,28.79,24.61,36.33,0.04,-272.74,-272.74,-47,560,-926,21.6,3.1,-25.2,22.0,3.1,-24.8,5.73,2.47,-26.5,27.6
2012-02-10 00:06:00,0.0,1.9053,0.0010,400.21,0.39,92.0,33.9,138.12,28.79,24.60,36.33,0.04,-272.73,-272.74,-48,560,-926,21.6,3.1,-25.2,22.0,3.1,-24.8,5.73,2.39,-26.5,27.7
2012-02-10 00:07:00,0.0,1.9053,0.0009,400.35,0.40,84.1,31.1,138.12,28.80,24.60,36.32,0.04,-272.73,-272.74,-48,561,-926,21.6,3.1,-25.2,22.0,3.1,-24.7,5.73,2.28,-26.5,27.6
2012-02-10 00:08:00,0.0,1.9055,0.0007,400.28,0.29,80.1,37.1,138.12,28.80,24.60,36.34,0.04,-272.73,-272.74,-47,560,-926,21.6,3.1,-25.2,22.0,3.1,-24.8,5.73,2.47,-26.5,27.6
2012-02-10 00:09:00,0.0,1.9050,0.0009,400.35,0.32,86.8,37.6,138.12,28.80,24.60,36.34,0.04,-272.74,-272.74,-48,560,-926,21.6,3.1,-25.2,22.0,3.1,-24.7,5.73,2.39,-26.5,27.7
2012-02-10 00:10:00,0.0,1.9054,0.0009,400.35,0.35,81.4,35.4,138.12,28.79,24.60,36.33,0.04,-272.74,-272.73,-48,560,-926,21.6,3.1,-25.2,22.0,3.1,-24.7,5.73,2.27,-26.5,27.7
2012-02-10 00:11:00,0.0,1.9054,0.0009,400.29,0.34,93.6,33.0,138.11,28.79,24.61,36.34,0.04,-272.74,-272.74,-48,560,-926,21.6,3.1,-25.2,22.0,3.1,-24.7,5.73,2.46,-26.5,27.6
2012-02-10 00:12:00,0.0,1.9047,0.0010,400.33,0.35,84.2,36.1,138.11,28.79,24.61,36.33,0.04,-272.73,-272.74,-47,560,-925,21.6,3.1,-25.2,22.0,3.1,-24.7,5.73,2.40,-26.5,27.7
2012-02-10 00:13:00,0.0,1.9054,0.0011,400.39,0.37,77.6,34.1,138.12,28.79,24.61,36.33,0.04,-272.74,-272.74,-48,560,-926,21.6,3.0,-25.2,22.0,3.1,-24.7,5.73,2.27,-26.5,27.7
2012-02-10 00:14:00,0.0,1.9056,0.0010,400.26,0.36,91.5,32.0,138.12,28.79,24.60,36.33,0.04,-272.74,-272.74,-48,560,-926,21.6,3.0,-25.3,22.0,3.1,-24.8,5.73,2.45,-26.5,27.7
2012-02-10 00:15:00,0.0,1.9054,0.0009,400.35,0.31,94.3,32.5,138.12,28.79,24.60,36.33,0.04,-272.73,-272.74,-47,560,-926,21.6,3.0,-25.3,22.0,3.1,-24.8,5.73,2.42,-26.5,27.7
2012-02-10 00:16:00,0.0,1.9058,0.0008,400.32,0.40,78.8,35.5,138.12,28.79,24.60,36.33,0.04,-272.74,-272.73,-47,560,-926,21.6,3.0,-25.2,22.0,3.1,-24.7,5.73,2.27,-26.5,27.7
2012-02-10 00:17:00,0.0,1.9056,0.0008,400.41,0.36,88.6,26.7,138.12,28.79,24.60,36.33,0.04,-272.74,-272.74,-48,560,-926,21.7,3.1,-25.2,22.0,3.1,-24.7,5.73,2.45,-26.5,27.6
2012-02-10 00:18:00,0.0,1.9061,0.0010,400.39,0.36,82.4,30.1,138.12,28.79,24.60,36.33,0.04,-272.74,-272.74,-48,560,-926,21.7,3.0,-25.2,22.0,3.1,-24.7,5.73,2.42,-26.5,27.6
2012-02-10 00:19:00,0.0,1.9056,0.0011,400.46,0.42,89.1,31.5,138.12,28.79,24.61,36.33,0.04,-272.73,-272.74,-47,560,-926,21.6,3.0,-25.3,22.0,3.1,-24.8,5.73,2.27,-26.5,27.6
2012-02-10 00:20:00,0.0,1.9056,0.0010,400.31,0.38,83.4,34.2,138.12,28.79,24.60,36.34,0.04,-272.74,-272.74,-47,560,-926,21.6,3.0,-25.3,22.0,3.1,-24.8,5.73,2.43,-26.5,27.7
2012-02-10 00:21:00,0.0,1.9060,0.0010,400.39,0.36,79.6,33.9,138.12,28.79,24.60,36.33,0.04,-272.74,-272.74,-48,560,-926,21.6,3.1,-25.2,22.0,3.1,-24.7,5.73,2.45,-26.5,27.7
2012-02-10 00:22:00,0.0,1.9061,0.0009,400.46,0.34,78.1,27.8,138.12,28.79,24.60,36.33,0.04,-272.74,-272.74,-47,560,-925,21.6,3.0,-25.3,22.0,3.1,-24.8,5.73,2.27,-26.6,27.7
2012-02-10 00:23:00,0.0,1.9061,0.0011,400.38,0.34,86.8,35.3,138.12,28.79,24.60,36.33,0.04,-272.73,-272.74,-47,560,-926,21.7,3.0,-25.3,22.0,3.1,-24.8,5.73,2.41,-26.6,27.7
2012-02-10 00:24:00,0.0,1.9060,0.0009,400.53,0.46,72.5,27.8,138.12,28.79,24.61,36.33,0.04,-272.74,-272.74,-48,560,-925,21.6,3.0,-25.3,22.0,3.1,-24.7,5.73,2.45,-26.5,27.8
2012-02-10 00:25:00,0.0,1.9061,0.0010,400.40,0.35,85.6,33.9,138.12,28.80,24.60,36.33,0.04,-272.74,-272.74,-48,560,-925,21.6,3.0,-25.3,22.0,3.1,-24.7,5.73,2.27,-26.6,27.7
2012-02-10 00:26:00,0.0,1.9059,0.0008,400.31,0.29,80.2,31.3,138.12,28.80,24.60,36.34,0.04,-272.74,-272.73,-47,561,-925,21.6,3.1,-25.2,22.0,3.1,-24.7,5.73,2.41,-26.5,27.7
2012-02-10 00:27:00,0.0,1.9059,0.0012,400.33,0.33,89.5,33.4,138.12,28.80,24.60,36.33,0.04,-272.74,-272.74,-47,560,-925,21.7,3.1,-25.2,22.0,3.1,-24.7,5.73,2.46,-26.5,27.7
2012-02-10 00:28:00,0.0,1.9063,0.0009,400.45,0.33,82.6,35.9,138.12,28.79,24.60,36.33,0.04,-272.74,-272.74,-48,560,-925,21.6,3.1,-25.2,22.0,3.1,-24.7,5.73,2.28,-26.5,27.7
2012-02-10 00:29:00,0.0,1.9057,0.0009,400.53,0.35,86.5,33.3,138.12,28.79,24.61,36.33,0.04,-272.74,-272.74,-48,560,-925,21.7,3.1,-25.2,22.0,3.1,-24.7,5.73,2.38,-26.5,27.7
2012-02-10 00:30:00,0.0,1.9062,0.0009,400.45,0.28,86.6,27.5,138.12,28.79,24.60,36.33,0.04,-272.74,-272.74,-47,560,-925,21.7,3.1,-25.2,22.0,3.1,-24.7,5.73,2.47,-26.6,27.7
2012-02-10 00:31:00,0.0,1.9059,0.0008,400.62,0.40,75.6,31.1,138.12,28.79,24.61,36.33,0.04,-272.74,-272.74,-47,560,-925,21.6,3.1,-25.1,22.0,3.1,-24.7,5.73,2.28,-26.6,27.7
2012-02-10 00:32:00,0.0,1.9061,0.0009,400.55,0.35,80.6,33.7,138.12,28.79,24.60,36.33,0.04,-272.74,-272.74,-48,561,-925,21.6,3.1,-25.2,22.0,3.1,-24.7,5.73,2.37,-26.6,27.7
2012-02-10 00:33:00,0.0,1.9061,0.0011,400.46,0.36,83.0,29.2,138.12,28.79,24.60,36.33,0.04,-272.74,-272.74,-48,560,-925,21.7,3.1,-25.2,22.0,3.1,-24.7,5.73,2.48,-26.6,27.8
2012-02-10 00:34:00,0.0,1.9060,0.0008,400.43,0.37,89.1,36.3,138.11,28.79,24.60,36.33,0.04,-272.74,-272.74,-47,560,-925,21.7,3.1,-25.0,22.0,3.1,-24.6,5.73,2.29,-26.6,27.8
2012-02-10 00:35:00,0.0,1.9062,0.0009,400.36,0.32,86.8,31.9,138.11,28.79,24.60,36.34,0.04,-272.74,-272.74,-47,560,-925,21.6,3.1,-25.0,22.0,3.1,-24.7,5.73,2.35,-26.6,27.8
2012-02-10 00:36:00,0.0,1.9059,0.0010,400.38,0.32,77.4,39.2,138.11,28.79,24.61,36.34,0.04,-272.73,-272.74,-48,560,-925,21.6,3.1,-25.0,22.0,3.2,-24.5,5.73,2.49,-26.6,27.8
2012-02-10 00:37:00,0.0,1.9062,0.0012,400.53,0.37,79.9,31.5,138.11,28.79,24.60,36.33,0.04,-272.74,-272.74,-47,560,-925,21.6,3.1,-25.0,22.0,3.2,-24.5,5.73,2.31,-26.6,27.8
2012-02-10 00:38:00,0.0,1.9060,0.0011,400.47,0.30,82.4,32.0,138.12,28.79,24.60,36.33,0.04,-272.74,-272.74,-47,561,-926,21.7,3.1,-25.0,22.0,3.2,-24.5,5.73,2.33,-26.6,27.8
2012-02-10 00:39:00,0.0,1.9062,0.0008,400.37,0.36,91.3,32.6,138.12,28.79,24.60,36.34,0.04,-272.74,-272.73,-47,560,-925,21.7,3.1,-25.0,22.0,3.2,-24.5,5.73,2.49,-26.6,27.8
2012-02-10 00:40:00,0.0,1.9061,0.0008,400.34,0.43,91.4,35.7,138.11,28.79,24.60,36.34,0.04,-272.74,-272.74,-48,560,-925,21.7,3.1,-25.0,22.0,3.1,-24.6,5.73,2.33,-26.6,27.8
2012-02-10 00:41:00,0.0,1.9061,0.0010,400.47,0.39,84.2,33.9,138.11,28.79,24.61,36.33,0.04,-272.74,-272.74,-47,560,-926,21.7,3.1,-25.0,22.0,3.2,-24.5,5.73,2.31,-26.6,27.9
2012-02-10 00:42:00,0.0,1.9064,0.0010,400.46,0.37,88.3,36.7,138.11,28.79,24.60,36.33,0.04,-272.74,-272.74,-47,561,-926,21.7,3.1,-25.0,22.0,3.1,-24.6,5.73,2.49,-26.6,27.9
2012-02-10 00:43:00,0.0,1.9069,0.0012,400.56,0.36,81.2,32.8,138.11,28.79,24.60,36.33,0.04,-272.74,-272.74,-48,560,-926,21.7,3.1,-25.0,22.0,3.1,-24.6,5.73,2.34,-26.6,27.8
2012-02-10 00:44:00,0.0,1.9063,0.0008,400.48,0.33,84.7,32.7,138.11,28.79,24.61,36.33,0.04,-272.74,-272.73,-47,560,-926,21.7,3.1,-25.0,22.1,3.2,-24.5,5.73,2.30,-26.6,27.8
2012-02-10 00:45:00,0.0,1.9064,0.0009,400.53,0.32,86.7,30.6,138.11,28.79,24.61,36.33,0.04,-272.74,-272.74,-47,560,-926,21.7,3.1,-25.0,22.1,3.1,-24.6,5.73,2.48,-26.6,27.8
2012-02-10 00:46:00,0.0,1.9066,0.0008,400.47,0.32,92.3,36.1,138.11,28.79,24.60,36.33,0.04,-272.74,-272.74,-47,561,-925,21.7,3.1,-25.1,22.1,3.1,-24.6,5.73,2.38,-26.6,27.8
2012-02-10 00:47:00,0.0,1.9065,0.0010,400.47,0.34,82.6,31.2,138.11,28.79,24.61,36.33,0.04,-272.73,-272.74,-48,560,-925,21.7,3.1,-25.0,22.1,3.1,-24.6,5.73,2.28,-26.6,27.8
2012-02-10 00:48:00,0.0,1.9066,0.0009,400.57,0.38,87.0,33.7,138.11,28.79,24.60,36.33,0.04,-272.74,-272.74,-47,561,-925,21.7,3.1,-25.1,22.1,3.1,-24.6,5.73,2.47,-26.6,27.9
2012-02-10 00:49:00,0.0,1.9069,0.0009,400.60,0.32,85.3,41.5,138.11,28.79,24.60,36.33,0.04,-272.73,-272.74,-47,560,-926,21.7,3.1,-25.0,22.1,3.1,-24.6,5.73,2.41,-26.6,27.9
2012-02-10 00:50:00,0.0,1.9069,0.0011,400.44,0.36,90.1,34.9,138.11,28.79,24.61,36.34,0.04,-272.74,-272.74,-47,561,-926,21.7,3.1,-25.1,22.1,3.1,-24.6,5.73,2.27,-26.5,27.9
2012-02-10 00:51:00,0.0,1.9068,0.0010,400.58,0.35,87.8,32.1,138.11,28.79,24.60,36.33,0.04,-272.74,-272.74,-48,560,-925,21.7,3.1,-25.1,22.1,3.1,-24.6,5.73,2.45,-26.5,27.9
2012-02-10 00:52:00,0.0,1.9068,0.0009,400.63,0.36,90.2,32.6,138.11,28.79,24.60,36.33,0.04,-272.73,-272.74,-47,561,-926,21.7,3.1,-25.1,22.1,3.1,-24.6,5.73,2.42,-26.5,27.9
2012-02-10 00:53:00,0.0,1.9070,0.0011,400.53,0.40,91.3,34.2,138.12,28.79,24.60,36.34,0.04,-272.73,-272.74,-47,560,-926,21.7,3.1,-25.1,22.1,3.1,-24.6,5.73,2.27,-26.6,27.9
2012-02-10 00:54:00,0.0,1.9071,0.0010,400.56,0.32,83.4,37.3,138.11,28.79,24.60,36.33,0.04,-272.74,-272.74,-47,561,-925,21.7,3.1,-25.0,22.1,3.1,-24.6,5.73,2.42,-26.5,27.8
2012-02-10 00:55:00,0.0,1.9067,0.0011,400.64,0.35,94.2,36.3,138.11,28.79,24.60,36.33,0.04,-272.74,-272.74,-48,560,-926,21.7,3.1,-25.0,22.1,3.2,-24.5,5.73,2.46,-26.5,27.8
2012-02-10 00:56:00,0.0,1.9068,0.0010,400.56,0.37,87.3,33.1,138.11,28.79,24.60,36.33,0.04,-272.74,-272.74,-47,561,-926,21.7,3.1,-24.9,22.1,3.2,-24.6,5.73,2.28,-26.5,27.8
2012-02-10 00:57:00,0.0,1.9068,0.0009,400.57,0.35,94.1,35.8,138.11,28.79,24.60,36.33,0.04,-272.74,-272.74,-47,561,-926,21.7,3.1,-25.0,22.1,3.1,-24.6,5.73,2.39,-26.5,27.8
2012-02-10 00:58:00,0.0,1.9069,0.0009,400.58,0.34,85.0,35.7,138.11,28.79,24.61,36.33,0.04,-272.74,-272.74,-47,561,-926,21.7,3.1,-25.0,22.1,3.1,-24.6,5.73,2.47,-26.5,27.8
2012-02-10 00:59:00,0.0,1.9072,0.0009,400.56,0.37,83.8,38.0,138.11,28.80,24.60,36.33,0.04,-272.73,-272.73,-48,561,-926,21.7,3.1,-25.0,22.1,3.1,-24.6,5.73,2.28,-26.5,27.8
2012-02-10 01:00:00,0.0,1.9072,0.0010,400.53,0.35,89.9,32.7,138.11,28.80,24.60,36.33,0.04,-272.73,-272.74,-47,560,-925,21.7,3.1,-25.0,22.1,3.1,-24.6,5.73,2.36,-26.5,27.9
2012-02-10 01:01:00,0.0,1.9071,0.0009,400.60,0.39,102.4,34.5,138.11,28.80,24.61,36.33,0.04,-272.74,-272.74,-47,561,-926,21.7,3.1,-25.0,22.1,3.1,-24.6,5.73,2.48,-26.5,27.9
2012-02-10 01:02:00,0.0,1.9075,0.0009,400.59,0.32,94.0,35.6,138.11,28.80,24.60,36.34,0.04,-272.73,-272.74,-47,561,-926,21.7,3.1,-25.1,22.1,3.1,-24.6,5.73,2.32,-26.5,27.9
2012-02-10 01:03:00,0.0,1.9074,0.0008,400.60,0.34,84.8,36.5,138.11,28.80,24.60,36.33,0.04,-272.73,-272.74,-48,561,-926,21.7,3.1,-25.1,22.1,3.1,-24.6,5.73,2.32,-26.5,27.9
2012-02-10 01:04:00,0.0,1.9070,0.0012,400.57,0.38,94.1,31.2,138.11,28.81,24.61,36.33,0.04,-272.74,-272.74,-47,560,-925,21.7,3.1,-25.0,22.1,3.1,-24.5,5.73,2.49,-26.5,28.0
2012-02-10 01:05:00,0.0,1.9078,0.0010,400.60,0.34,100.3,33.3,138.11,28.81,24.61,36.33,0.04,-272.74,-272.74,-47,561,-926,21.7,3.1,-25.1,22.1,3.1,-24.6,5.73,2.33,-26.6,28.0
2012-02-10 01:06:00,0.0,1.9076,0.0009,400.68,0.38,90.7,29.2,138.11,28.81,24.60,36.34,0.04,-272.74,-272.73,-48,560,-925,21.7,3.1,-25.1,22.1,3.1,-24.6,5.73,2.31,-26.5,27.9
2012-02-10 01:07:00,0.0,1.9077,0.0010,400.66,0.32,86.1,33.9,138.11,28.81,24.60,36.33,0.04,-272.74,-272.74,-47,561,-925,21.7,3.1,-25.0,22.1,3.1,-24.6,5.73,2.49,-26.5,27.9
2012-02-10 01:08:00,0.0,1.9074,0.0010,400.67,0.36,93.0,30.3,138.11,28.81,24.61,36.33,0.04,-272.74,-272.74,-47,561,-925,21.7,3.1,-25.0,22.1,3.1,-24.6,5.73,2.34,-26.5,27.9
2012-02-10 01:09:00,0.0,1.9080,0.0011,400.74,0.39,85.8,34.0,138.11,28.81,24.60,36.33,0.04,-272.74,-272.73,-47,560,-926,21.7,3.1,-25.0,22.1,3.1,-24.6,5.73,2.31,-26.5,27.9
2012-02-10 01:10:00,0.0,1.9078,0.0012,400.62,0.34,87.9,31.9,138.11,28.81,24.60,36.33,0.04,-272.74,-272.74,-48,561,-925,21.7,3.1,-25.0,22.1,3.1,-24.6,5.73,2.48,-26.5,27.9
2012-02-10 01:11:00,0.0,1.9076,0.0009,400.54,0.38,97.9,30.9,138.11,28.81,24.61,36.34,0.04,-272.74,-272.74,-47,561,-925,21.8,3.1,-25.0,22.1,3.1,-24.6,5.73,2.35,-26.5,27.9
2012-02-10 01:12:00,0.0,1.9074,0.0009,400.63,0.37,98.7,32.1,138.11,28.81,24.61,36.33,0.04,-272.74,-272.74,-47,562,-926,21.8,3.1,-25.0,22.1,3.1,-24.6,5.73,2.30,-26.5,27.9
2012-02-10 01:13:00,0.0,1.9079,0.0010,400.64,0.39,92.8,35.1,138.11,28.82,24.61,36.33,0.04,-272.74,-272.74,-48,560,-925,21.8,3.1,-25.0,22.1,3.1,-24.6,5.73,2.49,-26.5,27.9
2012-02-10 01:14:00,0.0,1.9082,0.0010,400.55,0.36,94.6,33.0,138.11,28.82,24.61,36.34,0.04,-272.74,-272.73,-48,561,-925,21.8,3.1,-25.0,22.1,3.1,-24.6,5.73,2.33,-26.5,27.9
2012-02-10 01:15:00,0.0,1.9083,0.0011,400.55,0.35,84.9,33.9,138.11,28.82,24.60,36.34,0.04,-272.74,-272.74,-47,561,-925,21.8,3.1,-25.1,22.1,3.1,-24.6,5.73,2.32,-26.5,27.9
2012-02-10 01:16:00,0.0,1.9085,0.0011,400.74,0.33,91.1,36.0,138.11,28.82,24.60,36.33,0.04,-272.73,-272.74,-47,561,-925,21.8,3.1,-25.1,22.1,3.1,-24.7,5.73,2.49,-26.5,27.9
2012-02-10 01:17:00,0.0,1.9079,0.0008,400.72,0.32,94.7,40.0,138.11,28.82,24.61,36.33,0.04,-272.73,-272.73,-48,561,-925,21.8,3.1,-25.1,22.1,3.1,-24.6,5.73,2.32,-26.5,27.9
2012-02-10 01:18:00,0.0,1.9083,0.0010,400.71,0.35,93.9,33.2,138.11,28.82,24.60,36.33,0.04,-272.74,-272.74,-47,561,-925,21.8,3.1,-25.1,22.1,3.1,-24.6,5.73,2.32,-26.5,27.9
2012-02-10 01:19:00,0.0,1.9084,0.0010,400.68,0.32,99.3,32.7,138.11,28.82,24.60,36.33,0.04,-272.74,-272.74,-47,560,-925,21.8,3.1,-25.0,22.1,3.1,-24.6,5.73,2.49,-26.5,28.0
2012-02-10 01:20:00,0.0,1.9084,0.0009,400.66,0.35,90.5,39.9,138.11,28.83,24.61,36.34,0.04,-272.73,-272.73,-48,561,-925,21.8,3.1,-25.0,22.1,3.1,-24.5,5.73,2.30,-26.5,28.0
2012-02-10 01:21:00,0.0,1.9083,0.0009,400.69,0.40,93.7,40.0,138.11,28.83,24.61,36.34,0.04,-272.74,-272.74,-47,561,-925,21.8,3.1,-24.9,22.1,3.2,-24.5,5.73,2.36,-26.5,28.0
2012-02-10 01:22:00,0.0,1.9080,0.0009,400.75,0.32,91.1,37.5,138.11,28.83,24.61,36.33,0.04,-272.74,-272.74,-47,561,-925,21.8,3.1,-24.9,22.1,3.2,-24.5,5.73,2.48,-26.5,28.0
2012-02-10 01:23:00,0.0,1.9088,0.0009,400.69,0.32,91.3,35.9,138.11,28.83,24.60,36.34,0.04,-272.73,-272.73,-47,561,-925,21.8,3.1,-24.9,22.1,3.2,-24.5,5.73,2.28,-26.5,28.0
2012-02-10 01:24:00,0.0,1.9086,0.0011,400.72,0.35,90.7,39.4,138.11,28.83,24.61,36.33,0.04,-272.74,-272.74,-48,561,-925,21.8,3.1,-24.9,22.1,3.2,-24.4,5.73,2.38,-26.5,27.9
2012-02-10 01:25:00,0.0,1.9087,0.0011,400.72,0.34,95.7,34.4,138.11,28.83,24.60,36.33,0.04,-272.73,-272.74,-47,561,-925,21.8,3.1,-24.9,22.1,3.2,-24.4,5.73,2.47,-26.5,27.9
2012-02-10 01:26:00,0.0,1.9091,0.0010,400.68,0.36,98.0,33.3,138.11,28.83,24.60,36.34,0.04,-272.74,-272.74,-47,561,-925,21.8,3.1,-24.9,22.2,3.2,-24.5,5.73,2.27,-26.5,27.9
2012-02-10 01:27:00,0.0,1.9088,0.0009,400.66,0.40,102.1,32.9,138.11,28.83,24.61,36.34,0.04,-272.74,-272.73,-48,561,-925,21.8,3.1,-24.9,22.2,3.2,-24.4,5.73,2.41,-26.5,27.9
2012-02-10 01:28:00,0.0,1.9094,0.0010,400.72,0.34,97.9,35.9,138.11,28.84,24.60,36.34,0.04,-272.74,-272.74,-48,561,-925,21.8,3.1,-24.9,22.2,3.2,-24.4,5.73,2.43,-26.5,28.0
2012-02-10 01:29:00,0.0,1.9089,0.0009,400.67,0.36,97.0,33.4,138.11,28.84,24.60,36.34,0.04,-272.74,-272.74,-47,562,-925,21.8,3.1,-24.8,22.2,3.2,-24.3,5.73,2.26,-26.5,27.9
2012-02-10 01:30:00,0.0,1.9090,0.0009,400.71,0.38,83.1,28.9,138.11,28.84,24.60,36.34,0.04,-272.73,-272.74,-47,561,-926,21.8,3.1,-24.9,22.2,3.2,-24.4,5.73,2.38,-26.6,27.4
2012-02-10 01:31:00,0.0,1.9086,0.0010,400.75,0.33,70.7,39.6,138.12,28.83,24.60,36.33,0.04,-272.74,-272.74,-48,561,-926,21.8,3.1,-24.9,22.1,3.2,-24.5,5.73,2.37,-26.8,26.9
2012-02-10 01:32:00,0.0,1.9081,0.0008,400.77,0.35,55.8,29.1,138.13,28.81,24.61,36.33,0.04,-272.74,-272.74,-48,561,-926,21.8,3.1,-24.9,22.1,3.2,-24.5,5.73,2.36,-27.0,26.6
2012-02-10 01:33:00,0.0,1.9082,0.0009,400.88,0.29,33.0,29.2,138.14,28.79,24.60,36.33,0.04,-272.74,-272.74,-48,561,-926,21.7,3.1,-24.9,22.0,3.2,-24.5,5.73,2.45,-27.3,26.3
2012-02-10 01:34:00,0.0,1.9080,0.0009,400.88,0.33,16.7,24.0,138.15,28.76,24.60,36.33,0.04,-272.74,-272.74,-47,561,-926,21.7,3.1,-24.9,21.9,3.2,-24.6,5.73,2.50,-27.5,26.0
2012-02-10 01:35:00,0.0,1.9076,0.0011,400.99,0.35,6.5,12.4,138.15,28.72,24.60,36.33,0.04,-272.74,-272.74,-47,561,-926,21.6,3.1,-24.9,21.8,3.2,-24.6,5.73,2.40,-27.7,25.7
2012-02-10 01:36:00,0.0,1.9070,0.0009,401.01,0.43,2.5,10.1,138.16,28.68,24.61,36.32,0.04,-272.73,-272.73,-48,560,-926,21.5,3.2,-24.9,21.7,3.2,-24.5,5.73,2.29,-27.9,25.5
2012-02-10 01:37:00,0.0,1.9061,0.0013,400.80,0.33,2.6,12.0,138.17,28.64,24.60,36.32,0.04,-272.73,-272.74,-48,559,-925,21.4,3.2,-24.9,21.6,3.2,-24.6,5.73,2.33,-28.0,25.4
2012-02-10 01:38:00,0.0,1.9053,0.0010,400.91,0.32,1.2,9.1,138.17,28.59,24.60,36.32,0.04,-272.73,-272.74,-48,559,-925,21.4,3.2,-24.9,21.5,3.3,-24.5,5.73,2.44,-28.1,25.7
2012-02-10 01:39:00,0.0,1.9054,0.0009,400.81,0.42,3.0,11.6,138.17,28.56,24.60,36.32,0.04,-272.74,-272.73,-48,559,-925,21.3,3.2,-24.9,21.5,3.3,-24.6,5.73,2.45,-28.1,26.1
2012-02-10 01:40:00,0.0,1.9054,0.0011,400.77,0.29,2.7,10.5,138.16,28.53,24.60,36.32,0.04,-272.73,-272.74,-49,558,-925,21.3,3.2,-24.9,21.5,3.3,-24.5,5.73,2.28,-28.0,26.2
2012-02-10 01:41:00,0.0,1.9057,0.0009,400.97,0.35,4.4,12.6,138.16,28.51,24.60,36.32,0.04,-272.74,-272.74,-48,558,-925,21.2,3.2,-24.8,21.5,3.3,-24.4,5.73,2.38,-27.9,26.4
2012-02-10 01:42:00,0.0,1.9058,0.0012,400.86,0.44,3.3,9.5,138.15,28.49,24.60,36.32,0.04,-272.74,-272.74,-48,559,-925,21.3,3.2,-24.8,21.5,3.3,-24.5,5.73,2.47,-27.9,26.5
2012-02-10 01:43:00,0.0,1.9065,0.0008,400.79,0.43,3.3,9.9,138.15,28.48,24.60,36.32,0.04,-272.73,-272.74,-47,558,-925,21.3,3.2,-24.8,21.5,3.3,-24.4,5.73,2.27,-27.8,26.5
2012-02-10 01:44:00,0.0,1.9064,0.0009,400.85,0.44,11.0,18.3,138.15,28.47,24.60,36.32,0.04,-272.73,-272.74,-48,558,-924,21.3,3.3,-24.7,21.5,3.3,-24.3,5.73,2.38,-27.8,26.5
2012-02-10 01:45:00,0.0,1.9068,0.0009,400.84,0.32,12.2,20.0,138.14,28.47,24.60,36.32,0.04,-272.74,-272.74,-48,558,-924,21.2,3.3,-24.8,21.6,3.3,-24.3,5.73,2.48,-27.7,26.6
2012-02-10 01:46:00,0.0,1.9069,0.0012,400.96,0.39,13.5,21.5,138.14,28.46,24.60,36.32,0.04,-272.74,-272.74,-47,558,-924,21.3,3.3,-24.7,21.6,3.3,-24.3,5.73,2.30,-27.6,26.6
2012-02-10 01:47:00,0.0,1.9074,0.0010,400.98,0.37,18.8,22.7,138.14,28.46,24.60,36.32,0.04,-272.74,-272.74,-47,558,-924,21.2,3.3,-24.7,21.6,3.3,-24.2,5.73,2.34,-27.5,26.6
2012-02-10 01:48:00,0.0,1.9072,0.0008,400.89,0.40,17.2,23.3,138.14,28.45,24.60,36.32,0.04,-272.74,-272.74,-48,557,-924,21.3,3.3,-24.6,21.6,3.3,-24.2,5.73,2.49,-27.6,26.6
2012-02-10 01:49:00,0.0,1.9076,0.0011,401.06,0.41,22.5,27.9,138.14,28.45,24.60,36.31,0.04,-272.74,-272.74,-48,557,-925,21.3,3.3,-24.5,21.6,3.4,-24.1,5.73,2.35,-27.4,26.7
2012-02-10 01:50:00,0.0,1.9077,0.0008,400.85,0.40,16.9,21.0,138.14,28.45,24.60,36.32,0.04,-272.73,-272.73,-47,558,-924,21.3,3.3,-24.4,21.6,3.4,-24.1,5.73,2.29,-27.4,26.7
2012-02-10 01:51:00,0.0,1.9083,0.0009,400.86,0.42,24.8,29.5,138.14,28.45,24.60,36.32,0.04,-272.74,-272.74,-47,558,-924,21.3,3.3,-24.4,21.6,3.4,-24.1,5.73,2.47,-27.4,26.6
2012-02-10 01:52:00,0.0,1.9082,0.0010,400.77,0.38,33.6,27.1,138.13,28.45,24.60,36.33,0.04,-272.75,-272.74,-48,557,-924,21.3,3.3,-24.4,21.6,3.4,-24.1,5.73,2.40,-27.3,26.6
2012-02-10 01:53:00,0.0,1.9082,0.0009,400.85,0.46,31.2,24.8,138.13,28.45,24.60,36.32,0.04,-272.74,-272.74,-48,557,-924,21.3,3.3,-24.4,21.6,3.4,-24.0,5.73,2.27,-27.3,26.6
2012-02-10 01:54:00,0.0,1.9080,0.0009,400.90,0.40,37.5,27.0,138.13,28.46,24.60,36.32,0.04,-272.74,-272.73,-47,557,-924,21.4,3.3,-24.4,21.7,3.4,-24.0,5.73,2.45,-27.3,26.6
2012-02-10 01:55:00,0.0,1.9078,0.0008,400.95,0.38,35.8,29.1,138.13,28.46,24.60,36.32,0.04,-272.74,-272.74,-47,557,-924,21.4,3.3,-24.4,21.7,3.4,-24.0,5.73,2.44,-27.3,26.6
2012-02-10 01:56:00,0.0,1.9085,0.0009,400.84,0.41,36.9,28.4,138.13,28.46,24.60,36.32,0.04,-272.74,-272.74,-48,558,-924,21.4,3.4,-24.3,21.7,3.4,-23.9,5.73,2.27,-27.2,26.7
2012-02-10 01:57:00,0.0,1.9084,0.0010,400.90,0.41,42.4,32.7,138.13,28.46,24.60,36.32,0.04,-272.73,-272.74,-48,558,-924,21.4,3.4,-24.3,21.7,3.4,-23.9,5.73,2.40,-27.2,26.7
2012-02-10 01:58:00,0.0,1.9081,0.0009,400.97,0.45,48.2,34.1,138.13,28.46,24.60,36.32,0.04,-272.74,-272.74,-47,558,-924,21.4,3.4,-24.3,21.7,3.4,-23.9,5.73,2.48,-27.2,26.8
2012-02-10 01:59:00,0.0,1.9082,0.0008,401.03,0.38,44.1,30.8,138.13,28.46,24.60,36.31,0.04,-272.74,-272.74,-47,558,-924,21.4,3.4,-24.2,21.7,3.5,-23.8,5.73,2.29,-27.1,26.9
2012-02-10 02:00:00,0.0,1.9081,0.0009,400.94,0.43,50.0,33.7,138.13,28.46,24.60,36.32,0.04,-272.74,-272.74,-47,558,-924,21.4,3.4,-24.2,21.7,3.5,-23.8,5.73,2.35,-27.1,26.9
2012-02-10 02:01:00,0.0,1.9085,0.0012,400.96,0.46,59.0,37.1,138.13,28.46,24.60,36.32,0.04,-272.74,-272.74,-48,558,-924,21.4,3.4,-24.2,21.7,3.5,-23.8,5.73,2.48,-27.1,27.0
2012-02-10 02:02:00,0.0,1.9080,0.0010,401.04,0.44,49.0,27.8,138.13,28.46,24.60,36.31,0.04,-272.74,-272.74,-47,558,-924,21.4,3.4,-24.2,21.7,3.5,-23.8,5.73,2.33,-27.0,27.0
2012-02-10 02:03:00,0.0,1.9082,0.0008,400.89,0.39,61.9,30.0,138.13,28.46,24.60,36.32,0.04,-272.74,-272.73,-47,558,-924,21.4,3.4,-24.2,21.7,3.5,-23.8,5.73,2.30,-27.0,27.0
2012-02-10 02:04:00,0.0,1.9082,0.0010,401.05,0.42,61.5,30.0,138.13,28.46,24.60,36.32,0.04,-272.74,-272.74,-48,558,-924,21.4,3.4,-24.2,21.7,3.5,-23.8,5.73,2.48,-27.0,27.0
2012-02-10 02:05:00,0.0,1.9082,0.0009,401.04,0.44,60.3,32.2,138.12,28.46,24.60,36.32,0.04,-272.74,-272.74,-47,558,-924,21.5,3.4,-24.2,21.7,3.5,-23.8,5.73,2.37,-26.9,27.1
2012-02-10 02:06:00,0.0,1.9085,0.0010,401.05,0.36,65.9,34.1,138.12,28.47,24.60,36.32,0.04,-272.74,-272.73,-47,558,-924,21.5,3.4,-24.1,21.7,3.5,-23.7,5.73,2.28,-26.9,27.0
2012-02-10 02:07:00,0.0,1.9085,0.0010,401.02,0.38,65.2,34.3,138.12,28.47,24.60,36.32,0.04,-272.74,-272.73,-47,558,-924,21.5,3.4,-24.1,21.8,3.5,-23.7,5.73,2.47,-26.9,27.1
2012-02-10 02:08:00,0.0,1.9087,0.0010,400.98,0.40,69.0,33.5,138.12,28.47,24.60,36.32,0.04,-272.73,-272.74,-47,558,-924,21.5,3.4,-24.1,21.8,3.5,-23.7,5.73,2.40,-26.9,27.1
2012-02-10 02:09:00,0.0,1.9083,0.0009,401.10,0.35,73.4,34.5,138.12,28.47,24.60,36.32,0.04,-272.74,-272.74,-47,558,-924,21.5,3.4,-24.1,21.8,3.5,-23.7,5.73,2.27,-26.8,27.2
2012-02-10 02:10:00,0.0,1.9082,0.0009,401.09,0.45,84.4,30.4,138.12,28.47,24.60,36.32,0.04,-272.74,-272.74,-47,559,-924,21.5,3.4,-24.2,21.8,3.5,-23.7,5.73,2.45,-26.8,27.2
2012-02-10 02:11:00,0.0,1.9084,0.0009,401.07,0.45,75.3,37.1,138.12,28.47,24.60,36.32,0.04,-272.74,-272.73,-47,558,-924,21.5,3.4,-24.1,21.8,3.5,-23.7,5.73,2.43,-26.8,27.3
2012-02-10 02:12:00,0.0,1.9085,0.0009,401.02,0.41,77.7,29.5,138.12,28.47,24.60,36.33,0.04,-272.74,-272.74,-47,558,-924,21.5,3.4,-24.2,21.8,3.5,-23.7,5.73,2.27,-26.8,27.3
2012-02-10 02:13:00,0.0,1.9085,0.0011,400.99,0.40,83.7,33.1,138.12,28.47,24.60,36.32,0.04,-272.74,-272.74,-47,558,-924,21.5,3.4,-24.2,21.8,3.5,-23.7,5.73,2.43,-26.8,27.3
2012-02-10 02:14:00,0.0,1.9085,0.0009,401.03,0.41,78.0,30.7,138.12,28.47,24.60,36.32,0.04,-272.74,-272.74,-47,559,-924,21.5,3.4,-24.2,21.9,3.4,-23.7,5.73,2.44,-26.7,27.4
2012-02-10 02:15:00,0.0,1.9086,0.0009,401.11,0.44,87.1,35.0,138.12,28.47,24.60,36.32,0.04,-272.74,-272.74,-47,559,-924,21.6,3.4,-24.2,21.9,3.4,-23.8,5.73,2.26,-26.7,27.4
2012-02-10 02:16:00,0.0,1.9083,0.0009,400.95,0.34,90.4,33.1,138.12,28.48,24.60,36.32,0.04,-272.74,-272.74,-47,558,-924,21.6,3.4,-24.2,21.9,3.4,-23.8,5.73,2.43,-26.7,27.5
2012-02-10 02:17:00,0.0,1.9078,0.0009,400.98,0.36,93.0,34.3,138.12,28.48,24.60,36.32,0.04,-272.73,-272.73,-47,559,-924,21.6,3.4,-24.2,21.9,3.4,-23.7,5.73,2.44,-26.7,27.5